Index of /20260509/WXO-DD/model_rdps/10km/06/063
Name Last modified Size Description
Parent Directory -
20260509T06Z_MSC_RDPS_AbsoluteVorticity_IsbL-0250_RLatLon0.09_PT063H.grib2 2026-05-09 09:02 609K
20260509T06Z_MSC_RDPS_AbsoluteVorticity_IsbL-0500_RLatLon0.09_PT063H.grib2 2026-05-09 09:02 576K
20260509T06Z_MSC_RDPS_AbsoluteVorticity_IsbL-0700_RLatLon0.09_PT063H.grib2 2026-05-09 09:02 632K
20260509T06Z_MSC_RDPS_AbsoluteVorticity_IsbL-0850_RLatLon0.09_PT063H.grib2 2026-05-09 09:02 791K
20260509T06Z_MSC_RDPS_AirTemp_AGL-120m_RLatLon0.09_PT063H.grib2 2026-05-09 09:02 380K
20260509T06Z_MSC_RDPS_AirTemp_AGL-2m_RLatLon0.09_PT063H.grib2 2026-05-09 09:02 626K
20260509T06Z_MSC_RDPS_AirTemp_AGL-40m_RLatLon0.09_PT063H.grib2 2026-05-09 09:02 390K
20260509T06Z_MSC_RDPS_AirTemp_AGL-80m_RLatLon0.09_PT063H.grib2 2026-05-09 09:02 384K
20260509T06Z_MSC_RDPS_AirTemp_IsbL-0001_RLatLon0.09_PT063H.grib2 2026-05-09 09:02 246K
20260509T06Z_MSC_RDPS_AirTemp_IsbL-0005_RLatLon0.09_PT063H.grib2 2026-05-09 09:02 384K
20260509T06Z_MSC_RDPS_AirTemp_IsbL-0010_RLatLon0.09_PT063H.grib2 2026-05-09 09:02 393K
20260509T06Z_MSC_RDPS_AirTemp_IsbL-0020_RLatLon0.09_PT063H.grib2 2026-05-09 09:02 320K
20260509T06Z_MSC_RDPS_AirTemp_IsbL-0030_RLatLon0.09_PT063H.grib2 2026-05-09 09:02 344K
20260509T06Z_MSC_RDPS_AirTemp_IsbL-0050_RLatLon0.09_PT063H.grib2 2026-05-09 09:02 311K
20260509T06Z_MSC_RDPS_AirTemp_IsbL-0100_RLatLon0.09_PT063H.grib2 2026-05-09 09:02 422K
20260509T06Z_MSC_RDPS_AirTemp_IsbL-0150_RLatLon0.09_PT063H.grib2 2026-05-09 09:02 404K
20260509T06Z_MSC_RDPS_AirTemp_IsbL-0175_RLatLon0.09_PT063H.grib2 2026-05-09 09:02 398K
20260509T06Z_MSC_RDPS_AirTemp_IsbL-0200_RLatLon0.09_PT063H.grib2 2026-05-09 09:02 405K
20260509T06Z_MSC_RDPS_AirTemp_IsbL-0225_RLatLon0.09_PT063H.grib2 2026-05-09 09:02 413K
20260509T06Z_MSC_RDPS_AirTemp_IsbL-0250_RLatLon0.09_PT063H.grib2 2026-05-09 09:02 427K
20260509T06Z_MSC_RDPS_AirTemp_IsbL-0275_RLatLon0.09_PT063H.grib2 2026-05-09 09:02 406K
20260509T06Z_MSC_RDPS_AirTemp_IsbL-0300_RLatLon0.09_PT063H.grib2 2026-05-09 09:02 435K
20260509T06Z_MSC_RDPS_AirTemp_IsbL-0350_RLatLon0.09_PT063H.grib2 2026-05-09 09:02 422K
20260509T06Z_MSC_RDPS_AirTemp_IsbL-0400_RLatLon0.09_PT063H.grib2 2026-05-09 09:02 426K
20260509T06Z_MSC_RDPS_AirTemp_IsbL-0450_RLatLon0.09_PT063H.grib2 2026-05-09 09:02 435K
20260509T06Z_MSC_RDPS_AirTemp_IsbL-0500_RLatLon0.09_PT063H.grib2 2026-05-09 09:02 448K
20260509T06Z_MSC_RDPS_AirTemp_IsbL-0550_RLatLon0.09_PT063H.grib2 2026-05-09 09:02 468K
20260509T06Z_MSC_RDPS_AirTemp_IsbL-0600_RLatLon0.09_PT063H.grib2 2026-05-09 09:02 489K
20260509T06Z_MSC_RDPS_AirTemp_IsbL-0650_RLatLon0.09_PT063H.grib2 2026-05-09 09:02 507K
20260509T06Z_MSC_RDPS_AirTemp_IsbL-0700_RLatLon0.09_PT063H.grib2 2026-05-09 09:02 535K
20260509T06Z_MSC_RDPS_AirTemp_IsbL-0750_RLatLon0.09_PT063H.grib2 2026-05-09 09:02 535K
20260509T06Z_MSC_RDPS_AirTemp_IsbL-0800_RLatLon0.09_PT063H.grib2 2026-05-09 09:02 587K
20260509T06Z_MSC_RDPS_AirTemp_IsbL-0850_RLatLon0.09_PT063H.grib2 2026-05-09 09:02 632K
20260509T06Z_MSC_RDPS_AirTemp_IsbL-0875_RLatLon0.09_PT063H.grib2 2026-05-09 09:02 652K
20260509T06Z_MSC_RDPS_AirTemp_IsbL-0900_RLatLon0.09_PT063H.grib2 2026-05-09 09:02 532K
20260509T06Z_MSC_RDPS_AirTemp_IsbL-0925_RLatLon0.09_PT063H.grib2 2026-05-09 09:02 534K
20260509T06Z_MSC_RDPS_AirTemp_IsbL-0950_RLatLon0.09_PT063H.grib2 2026-05-09 09:02 538K
20260509T06Z_MSC_RDPS_AirTemp_IsbL-0970_RLatLon0.09_PT063H.grib2 2026-05-09 09:02 538K
20260509T06Z_MSC_RDPS_AirTemp_IsbL-0985_RLatLon0.09_PT063H.grib2 2026-05-09 09:02 527K
20260509T06Z_MSC_RDPS_AirTemp_IsbL-1000_RLatLon0.09_PT063H.grib2 2026-05-09 09:02 509K
20260509T06Z_MSC_RDPS_AirTemp_IsbL-1015_RLatLon0.09_PT063H.grib2 2026-05-09 09:02 511K
20260509T06Z_MSC_RDPS_Albedo_Sfc_RLatLon0.09_PT063H.grib2 2026-05-09 09:02 160K
20260509T06Z_MSC_RDPS_CAPE_Sfc_RLatLon0.09_PT063H.grib2 2026-05-09 09:02 1.8M
20260509T06Z_MSC_RDPS_CIN_Sfc_RLatLon0.09_PT063H.grib2 2026-05-09 09:02 1.4M
20260509T06Z_MSC_RDPS_CloudWater_EAtm_RLatLon0.09_PT063H.grib2 2026-05-09 09:02 233K
20260509T06Z_MSC_RDPS_ConvectivePrecip-Accum_Sfc_RLatLon0.09_PT063H.grib2 2026-05-09 09:02 1.3M
20260509T06Z_MSC_RDPS_DewPointDepression_AGL-2m_RLatLon0.09_PT063H.grib2 2026-05-09 09:02 420K
20260509T06Z_MSC_RDPS_DewPointDepression_IsbL-0001_RLatLon0.09_PT063H.grib2 2026-05-09 09:02 193
20260509T06Z_MSC_RDPS_DewPointDepression_IsbL-0005_RLatLon0.09_PT063H.grib2 2026-05-09 09:02 193
20260509T06Z_MSC_RDPS_DewPointDepression_IsbL-0010_RLatLon0.09_PT063H.grib2 2026-05-09 09:02 193
20260509T06Z_MSC_RDPS_DewPointDepression_IsbL-0020_RLatLon0.09_PT063H.grib2 2026-05-09 09:02 193
20260509T06Z_MSC_RDPS_DewPointDepression_IsbL-0030_RLatLon0.09_PT063H.grib2 2026-05-09 09:02 193
20260509T06Z_MSC_RDPS_DewPointDepression_IsbL-0050_RLatLon0.09_PT063H.grib2 2026-05-09 09:02 78K
20260509T06Z_MSC_RDPS_DewPointDepression_IsbL-0100_RLatLon0.09_PT063H.grib2 2026-05-09 09:02 114K
20260509T06Z_MSC_RDPS_DewPointDepression_IsbL-0150_RLatLon0.09_PT063H.grib2 2026-05-09 09:02 145K
20260509T06Z_MSC_RDPS_DewPointDepression_IsbL-0175_RLatLon0.09_PT063H.grib2 2026-05-09 09:02 169K
20260509T06Z_MSC_RDPS_DewPointDepression_IsbL-0200_RLatLon0.09_PT063H.grib2 2026-05-09 09:02 218K
20260509T06Z_MSC_RDPS_DewPointDepression_IsbL-0225_RLatLon0.09_PT063H.grib2 2026-05-09 09:02 262K
20260509T06Z_MSC_RDPS_DewPointDepression_IsbL-0250_RLatLon0.09_PT063H.grib2 2026-05-09 09:02 308K
20260509T06Z_MSC_RDPS_DewPointDepression_IsbL-0275_RLatLon0.09_PT063H.grib2 2026-05-09 09:02 313K
20260509T06Z_MSC_RDPS_DewPointDepression_IsbL-0300_RLatLon0.09_PT063H.grib2 2026-05-09 09:02 330K
20260509T06Z_MSC_RDPS_DewPointDepression_IsbL-0350_RLatLon0.09_PT063H.grib2 2026-05-09 09:02 337K
20260509T06Z_MSC_RDPS_DewPointDepression_IsbL-0400_RLatLon0.09_PT063H.grib2 2026-05-09 09:02 350K
20260509T06Z_MSC_RDPS_DewPointDepression_IsbL-0450_RLatLon0.09_PT063H.grib2 2026-05-09 09:02 360K
20260509T06Z_MSC_RDPS_DewPointDepression_IsbL-0500_RLatLon0.09_PT063H.grib2 2026-05-09 09:02 365K
20260509T06Z_MSC_RDPS_DewPointDepression_IsbL-0550_RLatLon0.09_PT063H.grib2 2026-05-09 09:02 375K
20260509T06Z_MSC_RDPS_DewPointDepression_IsbL-0600_RLatLon0.09_PT063H.grib2 2026-05-09 09:02 389K
20260509T06Z_MSC_RDPS_DewPointDepression_IsbL-0650_RLatLon0.09_PT063H.grib2 2026-05-09 09:02 398K
20260509T06Z_MSC_RDPS_DewPointDepression_IsbL-0700_RLatLon0.09_PT063H.grib2 2026-05-09 09:02 413K
20260509T06Z_MSC_RDPS_DewPointDepression_IsbL-0750_RLatLon0.09_PT063H.grib2 2026-05-09 09:02 432K
20260509T06Z_MSC_RDPS_DewPointDepression_IsbL-0800_RLatLon0.09_PT063H.grib2 2026-05-09 09:02 467K
20260509T06Z_MSC_RDPS_DewPointDepression_IsbL-0850_RLatLon0.09_PT063H.grib2 2026-05-09 09:02 475K
20260509T06Z_MSC_RDPS_DewPointDepression_IsbL-0875_RLatLon0.09_PT063H.grib2 2026-05-09 09:02 470K
20260509T06Z_MSC_RDPS_DewPointDepression_IsbL-0900_RLatLon0.09_PT063H.grib2 2026-05-09 09:02 461K
20260509T06Z_MSC_RDPS_DewPointDepression_IsbL-0925_RLatLon0.09_PT063H.grib2 2026-05-09 09:02 450K
20260509T06Z_MSC_RDPS_DewPointDepression_IsbL-0950_RLatLon0.09_PT063H.grib2 2026-05-09 09:02 447K
20260509T06Z_MSC_RDPS_DewPointDepression_IsbL-0970_RLatLon0.09_PT063H.grib2 2026-05-09 09:02 443K
20260509T06Z_MSC_RDPS_DewPointDepression_IsbL-0985_RLatLon0.09_PT063H.grib2 2026-05-09 09:02 435K
20260509T06Z_MSC_RDPS_DewPointDepression_IsbL-1000_RLatLon0.09_PT063H.grib2 2026-05-09 09:02 428K
20260509T06Z_MSC_RDPS_DewPointDepression_IsbL-1015_RLatLon0.09_PT063H.grib2 2026-05-09 09:02 417K
20260509T06Z_MSC_RDPS_DewPoint_AGL-2m_RLatLon0.09_PT063H.grib2 2026-05-09 09:02 398K
20260509T06Z_MSC_RDPS_DownwardLongwaveRadiationFlux-Accum_Sfc_RLatLon0.09_PT063H.grib2 2026-05-09 09:02 412K
20260509T06Z_MSC_RDPS_DownwardShortwaveRadiationFlux-Accum_NTAtm_RLatLon0.09_PT063H.grib2 2026-05-09 09:02 106K
20260509T06Z_MSC_RDPS_DownwardShortwaveRadiationFlux-Accum_Sfc_RLatLon0.09_PT063H.grib2 2026-05-09 09:02 622K
20260509T06Z_MSC_RDPS_FreezingRain-Accum1h_Sfc_RLatLon0.09_PT063H.grib2 2026-05-09 09:02 27K
20260509T06Z_MSC_RDPS_FreezingRain-Accum3h_Sfc_RLatLon0.09_PT063H.grib2 2026-05-09 09:02 36K
20260509T06Z_MSC_RDPS_FreezingRain-Accum_Sfc_RLatLon0.09_PT063H.grib2 2026-05-09 09:02 189K
20260509T06Z_MSC_RDPS_GeopotentialHeight_IsbL-0001_RLatLon0.09_PT063H.grib2 2026-05-09 09:02 252K
20260509T06Z_MSC_RDPS_GeopotentialHeight_IsbL-0005_RLatLon0.09_PT063H.grib2 2026-05-09 09:02 343K
20260509T06Z_MSC_RDPS_GeopotentialHeight_IsbL-0010_RLatLon0.09_PT063H.grib2 2026-05-09 09:02 312K
20260509T06Z_MSC_RDPS_GeopotentialHeight_IsbL-0020_RLatLon0.09_PT063H.grib2 2026-05-09 09:02 312K
20260509T06Z_MSC_RDPS_GeopotentialHeight_IsbL-0030_RLatLon0.09_PT063H.grib2 2026-05-09 09:02 315K
20260509T06Z_MSC_RDPS_GeopotentialHeight_IsbL-0050_RLatLon0.09_PT063H.grib2 2026-05-09 09:02 313K
20260509T06Z_MSC_RDPS_GeopotentialHeight_IsbL-0100_RLatLon0.09_PT063H.grib2 2026-05-09 09:02 285K
20260509T06Z_MSC_RDPS_GeopotentialHeight_IsbL-0150_RLatLon0.09_PT063H.grib2 2026-05-09 09:02 228K
20260509T06Z_MSC_RDPS_GeopotentialHeight_IsbL-0175_RLatLon0.09_PT063H.grib2 2026-05-09 09:02 230K
20260509T06Z_MSC_RDPS_GeopotentialHeight_IsbL-0200_RLatLon0.09_PT063H.grib2 2026-05-09 09:02 233K
20260509T06Z_MSC_RDPS_GeopotentialHeight_IsbL-0225_RLatLon0.09_PT063H.grib2 2026-05-09 09:02 235K
20260509T06Z_MSC_RDPS_GeopotentialHeight_IsbL-0250_RLatLon0.09_PT063H.grib2 2026-05-09 09:02 236K
20260509T06Z_MSC_RDPS_GeopotentialHeight_IsbL-0275_RLatLon0.09_PT063H.grib2 2026-05-09 09:02 236K
20260509T06Z_MSC_RDPS_GeopotentialHeight_IsbL-0300_RLatLon0.09_PT063H.grib2 2026-05-09 09:02 235K
20260509T06Z_MSC_RDPS_GeopotentialHeight_IsbL-0350_RLatLon0.09_PT063H.grib2 2026-05-09 09:02 231K
20260509T06Z_MSC_RDPS_GeopotentialHeight_IsbL-0400_RLatLon0.09_PT063H.grib2 2026-05-09 09:02 227K
20260509T06Z_MSC_RDPS_GeopotentialHeight_IsbL-0450_RLatLon0.09_PT063H.grib2 2026-05-09 09:02 296K
20260509T06Z_MSC_RDPS_GeopotentialHeight_IsbL-0500_RLatLon0.09_PT063H.grib2 2026-05-09 09:02 291K
20260509T06Z_MSC_RDPS_GeopotentialHeight_IsbL-0550_RLatLon0.09_PT063H.grib2 2026-05-09 09:02 287K
20260509T06Z_MSC_RDPS_GeopotentialHeight_IsbL-0600_RLatLon0.09_PT063H.grib2 2026-05-09 09:02 285K
20260509T06Z_MSC_RDPS_GeopotentialHeight_IsbL-0650_RLatLon0.09_PT063H.grib2 2026-05-09 09:02 256K
20260509T06Z_MSC_RDPS_GeopotentialHeight_IsbL-0700_RLatLon0.09_PT063H.grib2 2026-05-09 09:02 256K
20260509T06Z_MSC_RDPS_GeopotentialHeight_IsbL-0750_RLatLon0.09_PT063H.grib2 2026-05-09 09:02 342K
20260509T06Z_MSC_RDPS_GeopotentialHeight_IsbL-0800_RLatLon0.09_PT063H.grib2 2026-05-09 09:02 349K
20260509T06Z_MSC_RDPS_GeopotentialHeight_IsbL-0850_RLatLon0.09_PT063H.grib2 2026-05-09 09:02 356K
20260509T06Z_MSC_RDPS_GeopotentialHeight_IsbL-0875_RLatLon0.09_PT063H.grib2 2026-05-09 09:02 358K
20260509T06Z_MSC_RDPS_GeopotentialHeight_IsbL-0900_RLatLon0.09_PT063H.grib2 2026-05-09 09:02 362K
20260509T06Z_MSC_RDPS_GeopotentialHeight_IsbL-0925_RLatLon0.09_PT063H.grib2 2026-05-09 09:02 364K
20260509T06Z_MSC_RDPS_GeopotentialHeight_IsbL-0950_RLatLon0.09_PT063H.grib2 2026-05-09 09:02 369K
20260509T06Z_MSC_RDPS_GeopotentialHeight_IsbL-0970_RLatLon0.09_PT063H.grib2 2026-05-09 09:02 375K
20260509T06Z_MSC_RDPS_GeopotentialHeight_IsbL-0985_RLatLon0.09_PT063H.grib2 2026-05-09 09:02 386K
20260509T06Z_MSC_RDPS_GeopotentialHeight_IsbL-1000_RLatLon0.09_PT063H.grib2 2026-05-09 09:02 399K
20260509T06Z_MSC_RDPS_GeopotentialHeight_IsbL-1015_RLatLon0.09_PT063H.grib2 2026-05-09 09:02 415K
20260509T06Z_MSC_RDPS_HighLowPressure_MSL_RLatLon0.09_PT063H.json 2026-05-09 08:54 23K
20260509T06Z_MSC_RDPS_Humidex_Sfc_RLatLon0.09_PT063H.grib2 2026-05-09 09:02 2.4M
20260509T06Z_MSC_RDPS_IcePellets-Accum1h_Sfc_RLatLon0.09_PT063H.grib2 2026-05-09 09:02 11K
20260509T06Z_MSC_RDPS_IcePellets-Accum3h_Sfc_RLatLon0.09_PT063H.grib2 2026-05-09 09:02 14K
20260509T06Z_MSC_RDPS_IcePellets-Accum_Sfc_RLatLon0.09_PT063H.grib2 2026-05-09 09:02 43K
20260509T06Z_MSC_RDPS_KIndex_Sfc_RLatLon0.09_PT063H.grib2 2026-05-09 09:02 2.5M
20260509T06Z_MSC_RDPS_LatentHeatNetFlux_Sfc_RLatLon0.09_PT063H.grib2 2026-05-09 09:02 318K
20260509T06Z_MSC_RDPS_LiftedIndex-MU-VT_IsbL-0500_RLatLon0.09_PT063H.grib2 2026-05-09 09:02 2.4M
20260509T06Z_MSC_RDPS_NetLongwaveRadiationFlux-Accum_Sfc_RLatLon0.09_PT063H.grib2 2026-05-09 09:02 594K
20260509T06Z_MSC_RDPS_NetShortwaveRadiationFlux-Accum_Sfc_RLatLon0.09_PT063H.grib2 2026-05-09 09:02 622K
20260509T06Z_MSC_RDPS_PlanetaryBoundaryLayerHeight_Sfc_RLatLon0.09_PT063H.grib2 2026-05-09 09:02 1.0M
20260509T06Z_MSC_RDPS_Precip-Accum1h_Sfc_RLatLon0.09_PT063H.grib2 2026-05-09 09:02 1.2M
20260509T06Z_MSC_RDPS_Precip-Accum3h_Sfc_RLatLon0.09_PT063H.grib2 2026-05-09 09:02 1.4M
20260509T06Z_MSC_RDPS_Precip-Accum_Sfc_RLatLon0.09_PT063H.grib2 2026-05-09 09:02 2.1M
20260509T06Z_MSC_RDPS_PrecipRate_Sfc_RLatLon0.09_PT063H.grib2 2026-05-09 09:02 177K
20260509T06Z_MSC_RDPS_PrecipType-Instant_Sfc_RLatLon0.09_PT063H.grib2 2026-05-09 09:02 635K
20260509T06Z_MSC_RDPS_Pressure-Trend3h_Sfc_RLatLon0.09_PT063H.grib2 2026-05-09 09:02 1.2M
20260509T06Z_MSC_RDPS_Pressure_MSL_RLatLon0.09_PT063H.grib2 2026-05-09 09:02 330K
20260509T06Z_MSC_RDPS_Pressure_PVU-1.5_RLatLon0.09_PT063H.grib2 2026-05-09 09:02 2.3M
20260509T06Z_MSC_RDPS_Pressure_PVU-1_RLatLon0.09_PT063H.grib2 2026-05-09 09:02 2.4M
20260509T06Z_MSC_RDPS_Pressure_PVU-2_RLatLon0.09_PT063H.grib2 2026-05-09 09:02 2.4M
20260509T06Z_MSC_RDPS_Pressure_Sfc_RLatLon0.09_PT063H.grib2 2026-05-09 09:02 498K
20260509T06Z_MSC_RDPS_RadiativeTemp_Sfc_RLatLon0.09_PT063H.grib2 2026-05-09 09:02 333K
20260509T06Z_MSC_RDPS_Rain-Accum1h_Sfc_RLatLon0.09_PT063H.grib2 2026-05-09 09:02 604K
20260509T06Z_MSC_RDPS_Rain-Accum3h_Sfc_RLatLon0.09_PT063H.grib2 2026-05-09 09:02 693K
20260509T06Z_MSC_RDPS_Rain-Accum_Sfc_RLatLon0.09_PT063H.grib2 2026-05-09 09:02 1.9M
20260509T06Z_MSC_RDPS_RelativeHumidity_AGL-2m_RLatLon0.09_PT063H.grib2 2026-05-09 09:02 1.0M
20260509T06Z_MSC_RDPS_RelativeHumidity_IsbL-0010_RLatLon0.09_PT063H.grib2 2026-05-09 09:02 559K
20260509T06Z_MSC_RDPS_RelativeHumidity_IsbL-0020_RLatLon0.09_PT063H.grib2 2026-05-09 09:02 626K
20260509T06Z_MSC_RDPS_RelativeHumidity_IsbL-0030_RLatLon0.09_PT063H.grib2 2026-05-09 09:02 618K
20260509T06Z_MSC_RDPS_RelativeHumidity_IsbL-0050_RLatLon0.09_PT063H.grib2 2026-05-09 09:02 353K
20260509T06Z_MSC_RDPS_RelativeHumidity_IsbL-0100_RLatLon0.09_PT063H.grib2 2026-05-09 09:02 276K
20260509T06Z_MSC_RDPS_RelativeHumidity_IsbL-0150_RLatLon0.09_PT063H.grib2 2026-05-09 09:02 415K
20260509T06Z_MSC_RDPS_RelativeHumidity_IsbL-0175_RLatLon0.09_PT063H.grib2 2026-05-09 09:02 471K
20260509T06Z_MSC_RDPS_RelativeHumidity_IsbL-0200_RLatLon0.09_PT063H.grib2 2026-05-09 09:02 540K
20260509T06Z_MSC_RDPS_RelativeHumidity_IsbL-0225_RLatLon0.09_PT063H.grib2 2026-05-09 09:02 619K
20260509T06Z_MSC_RDPS_RelativeHumidity_IsbL-0250_RLatLon0.09_PT063H.grib2 2026-05-09 09:02 702K
20260509T06Z_MSC_RDPS_RelativeHumidity_IsbL-0275_RLatLon0.09_PT063H.grib2 2026-05-09 09:02 730K
20260509T06Z_MSC_RDPS_RelativeHumidity_IsbL-0300_RLatLon0.09_PT063H.grib2 2026-05-09 09:02 771K
20260509T06Z_MSC_RDPS_RelativeHumidity_IsbL-0350_RLatLon0.09_PT063H.grib2 2026-05-09 09:02 787K
20260509T06Z_MSC_RDPS_RelativeHumidity_IsbL-0400_RLatLon0.09_PT063H.grib2 2026-05-09 09:02 804K
20260509T06Z_MSC_RDPS_RelativeHumidity_IsbL-0450_RLatLon0.09_PT063H.grib2 2026-05-09 09:02 817K
20260509T06Z_MSC_RDPS_RelativeHumidity_IsbL-0500_RLatLon0.09_PT063H.grib2 2026-05-09 09:02 833K
20260509T06Z_MSC_RDPS_RelativeHumidity_IsbL-0550_RLatLon0.09_PT063H.grib2 2026-05-09 09:02 840K
20260509T06Z_MSC_RDPS_RelativeHumidity_IsbL-0600_RLatLon0.09_PT063H.grib2 2026-05-09 09:02 864K
20260509T06Z_MSC_RDPS_RelativeHumidity_IsbL-0650_RLatLon0.09_PT063H.grib2 2026-05-09 09:02 882K
20260509T06Z_MSC_RDPS_RelativeHumidity_IsbL-0700_RLatLon0.09_PT063H.grib2 2026-05-09 09:02 918K
20260509T06Z_MSC_RDPS_RelativeHumidity_IsbL-0750_RLatLon0.09_PT063H.grib2 2026-05-09 09:02 960K
20260509T06Z_MSC_RDPS_RelativeHumidity_IsbL-0800_RLatLon0.09_PT063H.grib2 2026-05-09 09:02 1.0M
20260509T06Z_MSC_RDPS_RelativeHumidity_IsbL-0850_RLatLon0.09_PT063H.grib2 2026-05-09 09:02 1.0M
20260509T06Z_MSC_RDPS_RelativeHumidity_IsbL-0875_RLatLon0.09_PT063H.grib2 2026-05-09 09:02 1.1M
20260509T06Z_MSC_RDPS_RelativeHumidity_IsbL-0900_RLatLon0.09_PT063H.grib2 2026-05-09 09:02 1.1M
20260509T06Z_MSC_RDPS_RelativeHumidity_IsbL-0925_RLatLon0.09_PT063H.grib2 2026-05-09 09:02 1.1M
20260509T06Z_MSC_RDPS_RelativeHumidity_IsbL-0950_RLatLon0.09_PT063H.grib2 2026-05-09 09:02 1.1M
20260509T06Z_MSC_RDPS_RelativeHumidity_IsbL-0970_RLatLon0.09_PT063H.grib2 2026-05-09 09:02 1.1M
20260509T06Z_MSC_RDPS_RelativeHumidity_IsbL-0985_RLatLon0.09_PT063H.grib2 2026-05-09 09:02 1.0M
20260509T06Z_MSC_RDPS_RelativeHumidity_IsbL-1000_RLatLon0.09_PT063H.grib2 2026-05-09 09:02 1.0M
20260509T06Z_MSC_RDPS_RelativeHumidity_IsbL-1015_RLatLon0.09_PT063H.grib2 2026-05-09 09:02 1.0M
20260509T06Z_MSC_RDPS_Runoff-Accum_Sfc_RLatLon0.09_PT063H.grib2 2026-05-09 09:02 48K
20260509T06Z_MSC_RDPS_SWEATIndex_Sfc_RLatLon0.09_PT063H.grib2 2026-05-09 09:02 2.5M
20260509T06Z_MSC_RDPS_SeeingIndex_EAtm_RLatLon0.09_PT063H.grib2 2026-05-09 09:02 1.1M
20260509T06Z_MSC_RDPS_SensibleHeatNetFlux_Sfc_RLatLon0.09_PT063H.grib2 2026-05-09 09:02 275K
20260509T06Z_MSC_RDPS_ShowalterIndex_IsbL-0500_RLatLon0.09_PT063H.grib2 2026-05-09 09:02 2.6M
20260509T06Z_MSC_RDPS_SkyTransparencyIndex_EAtm_RLatLon0.09_PT063H.grib2 2026-05-09 09:02 715K
20260509T06Z_MSC_RDPS_Snow-Accum1h_Sfc_RLatLon0.09_PT063H.grib2 2026-05-09 09:02 404K
20260509T06Z_MSC_RDPS_Snow-Accum3h_Sfc_RLatLon0.09_PT063H.grib2 2026-05-09 09:02 405K
20260509T06Z_MSC_RDPS_Snow-Accum_Sfc_RLatLon0.09_PT063H.grib2 2026-05-09 09:02 661K
20260509T06Z_MSC_RDPS_SnowDensity_Sfc_RLatLon0.09_PT063H.grib2 2026-05-09 09:02 168K
20260509T06Z_MSC_RDPS_SnowDepth_Sfc_RLatLon0.09_PT063H.grib2 2026-05-09 09:02 613K
20260509T06Z_MSC_RDPS_SoilTemp_DBS-0to10cm_RLatLon0.09_PT063H.grib2 2026-05-09 09:02 244K
20260509T06Z_MSC_RDPS_SoilTemp_Sfc_RLatLon0.09_PT063H.grib2 2026-05-09 09:02 293K
20260509T06Z_MSC_RDPS_SoilVolumetricIceContent_Sfc_RLatLon0.09_PT063H.grib2 2026-05-09 09:02 140K
20260509T06Z_MSC_RDPS_SoilVolumetricWaterContent_DBS-0to10cm_RLatLon0.09_PT063H.grib2 2026-05-09 09:02 295K
20260509T06Z_MSC_RDPS_SoilVolumetricWaterContent_DBS-0to1cm_RLatLon0.09_PT063H.grib2 2026-05-09 09:02 347K
20260509T06Z_MSC_RDPS_SpecificHumidity_AGL-120m_RLatLon0.09_PT063H.grib2 2026-05-09 09:02 512K
20260509T06Z_MSC_RDPS_SpecificHumidity_AGL-2m_RLatLon0.09_PT063H.grib2 2026-05-09 09:02 687K
20260509T06Z_MSC_RDPS_SpecificHumidity_AGL-40m_RLatLon0.09_PT063H.grib2 2026-05-09 09:02 517K
20260509T06Z_MSC_RDPS_SpecificHumidity_AGL-80m_RLatLon0.09_PT063H.grib2 2026-05-09 09:02 513K
20260509T06Z_MSC_RDPS_SpecificHumidity_IsbL-0001_RLatLon0.09_PT063H.grib2 2026-05-09 09:02 368K
20260509T06Z_MSC_RDPS_SpecificHumidity_IsbL-0005_RLatLon0.09_PT063H.grib2 2026-05-09 09:02 362K
20260509T06Z_MSC_RDPS_SpecificHumidity_IsbL-0010_RLatLon0.09_PT063H.grib2 2026-05-09 09:02 391K
20260509T06Z_MSC_RDPS_SpecificHumidity_IsbL-0020_RLatLon0.09_PT063H.grib2 2026-05-09 09:02 376K
20260509T06Z_MSC_RDPS_SpecificHumidity_IsbL-0030_RLatLon0.09_PT063H.grib2 2026-05-09 09:02 364K
20260509T06Z_MSC_RDPS_SpecificHumidity_IsbL-0050_RLatLon0.09_PT063H.grib2 2026-05-09 09:02 475K
20260509T06Z_MSC_RDPS_SpecificHumidity_IsbL-0100_RLatLon0.09_PT063H.grib2 2026-05-09 09:02 404K
20260509T06Z_MSC_RDPS_SpecificHumidity_IsbL-0150_RLatLon0.09_PT063H.grib2 2026-05-09 09:02 458K
20260509T06Z_MSC_RDPS_SpecificHumidity_IsbL-0175_RLatLon0.09_PT063H.grib2 2026-05-09 09:02 435K
20260509T06Z_MSC_RDPS_SpecificHumidity_IsbL-0200_RLatLon0.09_PT063H.grib2 2026-05-09 09:02 470K
20260509T06Z_MSC_RDPS_SpecificHumidity_IsbL-0225_RLatLon0.09_PT063H.grib2 2026-05-09 09:02 478K
20260509T06Z_MSC_RDPS_SpecificHumidity_IsbL-0250_RLatLon0.09_PT063H.grib2 2026-05-09 09:02 560K
20260509T06Z_MSC_RDPS_SpecificHumidity_IsbL-0275_RLatLon0.09_PT063H.grib2 2026-05-09 09:02 492K
20260509T06Z_MSC_RDPS_SpecificHumidity_IsbL-0300_RLatLon0.09_PT063H.grib2 2026-05-09 09:02 465K
20260509T06Z_MSC_RDPS_SpecificHumidity_IsbL-0350_RLatLon0.09_PT063H.grib2 2026-05-09 09:02 459K
20260509T06Z_MSC_RDPS_SpecificHumidity_IsbL-0400_RLatLon0.09_PT063H.grib2 2026-05-09 09:02 544K
20260509T06Z_MSC_RDPS_SpecificHumidity_IsbL-0450_RLatLon0.09_PT063H.grib2 2026-05-09 09:02 602K
20260509T06Z_MSC_RDPS_SpecificHumidity_IsbL-0500_RLatLon0.09_PT063H.grib2 2026-05-09 09:02 537K
20260509T06Z_MSC_RDPS_SpecificHumidity_IsbL-0550_RLatLon0.09_PT063H.grib2 2026-05-09 09:02 613K
20260509T06Z_MSC_RDPS_SpecificHumidity_IsbL-0600_RLatLon0.09_PT063H.grib2 2026-05-09 09:02 670K
20260509T06Z_MSC_RDPS_SpecificHumidity_IsbL-0650_RLatLon0.09_PT063H.grib2 2026-05-09 09:02 589K
20260509T06Z_MSC_RDPS_SpecificHumidity_IsbL-0700_RLatLon0.09_PT063H.grib2 2026-05-09 09:02 638K
20260509T06Z_MSC_RDPS_SpecificHumidity_IsbL-0750_RLatLon0.09_PT063H.grib2 2026-05-09 09:02 697K
20260509T06Z_MSC_RDPS_SpecificHumidity_IsbL-0800_RLatLon0.09_PT063H.grib2 2026-05-09 09:02 784K
20260509T06Z_MSC_RDPS_SpecificHumidity_IsbL-0850_RLatLon0.09_PT063H.grib2 2026-05-09 09:02 839K
20260509T06Z_MSC_RDPS_SpecificHumidity_IsbL-0875_RLatLon0.09_PT063H.grib2 2026-05-09 09:02 716K
20260509T06Z_MSC_RDPS_SpecificHumidity_IsbL-0900_RLatLon0.09_PT063H.grib2 2026-05-09 09:02 725K
20260509T06Z_MSC_RDPS_SpecificHumidity_IsbL-0925_RLatLon0.09_PT063H.grib2 2026-05-09 09:02 729K
20260509T06Z_MSC_RDPS_SpecificHumidity_IsbL-0950_RLatLon0.09_PT063H.grib2 2026-05-09 09:02 735K
20260509T06Z_MSC_RDPS_SpecificHumidity_IsbL-0970_RLatLon0.09_PT063H.grib2 2026-05-09 09:02 733K
20260509T06Z_MSC_RDPS_SpecificHumidity_IsbL-0985_RLatLon0.09_PT063H.grib2 2026-05-09 09:02 723K
20260509T06Z_MSC_RDPS_SpecificHumidity_IsbL-1000_RLatLon0.09_PT063H.grib2 2026-05-09 09:02 713K
20260509T06Z_MSC_RDPS_SpecificHumidity_IsbL-1015_RLatLon0.09_PT063H.grib2 2026-05-09 09:02 701K
20260509T06Z_MSC_RDPS_SpecificHumidity_Sfc_RLatLon0.09_PT063H.grib2 2026-05-09 09:02 362K
20260509T06Z_MSC_RDPS_StormRelativeHelicity_EtaL-10000_RLatLon0.09_PT063H.grib2 2026-05-09 09:02 1.1M
20260509T06Z_MSC_RDPS_StormSeverityIndex_EtaL-10000_RLatLon0.09_PT063H.grib2 2026-05-09 09:02 1.2M
20260509T06Z_MSC_RDPS_Thickness_IsbL-0850to0700_RLatLon0.09_PT063H.grib2 2026-05-09 09:02 250K
20260509T06Z_MSC_RDPS_Thickness_IsbL-1000to0500_RLatLon0.09_PT063H.grib2 2026-05-09 09:02 198K
20260509T06Z_MSC_RDPS_Thickness_IsbL-1000to0850_RLatLon0.09_PT063H.grib2 2026-05-09 09:02 263K
20260509T06Z_MSC_RDPS_TotalCloudCover_Sfc_RLatLon0.09_PT063H.grib2 2026-05-09 09:02 672K
20260509T06Z_MSC_RDPS_TotalTotalsIndex_Sfc_RLatLon0.09_PT063H.grib2 2026-05-09 09:02 2.4M
20260509T06Z_MSC_RDPS_UVIndex-ClearSky_Sfc_RLatLon0.09_PT063H.grib2 2026-05-09 09:02 204K
20260509T06Z_MSC_RDPS_UVIndex_Sfc_RLatLon0.09_PT063H.grib2 2026-05-09 09:02 493K
20260509T06Z_MSC_RDPS_UpwardLongwaveRadiationFlux_NTAtm_RLatLon0.09_PT063H.grib2 2026-05-09 09:02 389K
20260509T06Z_MSC_RDPS_UpwardShortwaveRadiationFlux_NTAtm_RLatLon0.09_PT063H.grib2 2026-05-09 09:02 528K
20260509T06Z_MSC_RDPS_VerticalVelocity_IsbL-0250_RLatLon0.09_PT063H.grib2 2026-05-09 09:02 572K
20260509T06Z_MSC_RDPS_VerticalVelocity_IsbL-0500_RLatLon0.09_PT063H.grib2 2026-05-09 09:02 541K
20260509T06Z_MSC_RDPS_VerticalVelocity_IsbL-0700_RLatLon0.09_PT063H.grib2 2026-05-09 09:02 604K
20260509T06Z_MSC_RDPS_VerticalVelocity_IsbL-0850_RLatLon0.09_PT063H.grib2 2026-05-09 09:02 666K
20260509T06Z_MSC_RDPS_VerticalWindShear_EtaL-6500_RLatLon0.09_PT063H.grib2 2026-05-09 09:02 1.2M
20260509T06Z_MSC_RDPS_WindChill_Sfc_RLatLon0.09_PT063H.grib2 2026-05-09 09:02 1.2M
20260509T06Z_MSC_RDPS_WindDir_AGL-10m_RLatLon0.09_PT063H.grib2 2026-05-09 09:02 1.0M
20260509T06Z_MSC_RDPS_WindDir_AGL-120m_RLatLon0.09_PT063H.grib2 2026-05-09 09:02 620K
20260509T06Z_MSC_RDPS_WindDir_AGL-40m_RLatLon0.09_PT063H.grib2 2026-05-09 09:02 640K
20260509T06Z_MSC_RDPS_WindDir_AGL-80m_RLatLon0.09_PT063H.grib2 2026-05-09 09:02 628K
20260509T06Z_MSC_RDPS_WindDir_IsbL-0001_RLatLon0.09_PT063H.grib2 2026-05-09 09:02 282K
20260509T06Z_MSC_RDPS_WindDir_IsbL-0005_RLatLon0.09_PT063H.grib2 2026-05-09 09:02 375K
20260509T06Z_MSC_RDPS_WindDir_IsbL-0010_RLatLon0.09_PT063H.grib2 2026-05-09 09:02 404K
20260509T06Z_MSC_RDPS_WindDir_IsbL-0020_RLatLon0.09_PT063H.grib2 2026-05-09 09:02 455K
20260509T06Z_MSC_RDPS_WindDir_IsbL-0030_RLatLon0.09_PT063H.grib2 2026-05-09 09:02 439K
20260509T06Z_MSC_RDPS_WindDir_IsbL-0050_RLatLon0.09_PT063H.grib2 2026-05-09 09:02 439K
20260509T06Z_MSC_RDPS_WindDir_IsbL-0100_RLatLon0.09_PT063H.grib2 2026-05-09 09:02 425K
20260509T06Z_MSC_RDPS_WindDir_IsbL-0150_RLatLon0.09_PT063H.grib2 2026-05-09 09:02 425K
20260509T06Z_MSC_RDPS_WindDir_IsbL-0175_RLatLon0.09_PT063H.grib2 2026-05-09 09:02 446K
20260509T06Z_MSC_RDPS_WindDir_IsbL-0200_RLatLon0.09_PT063H.grib2 2026-05-09 09:02 460K
20260509T06Z_MSC_RDPS_WindDir_IsbL-0225_RLatLon0.09_PT063H.grib2 2026-05-09 09:02 461K
20260509T06Z_MSC_RDPS_WindDir_IsbL-0250_RLatLon0.09_PT063H.grib2 2026-05-09 09:02 461K
20260509T06Z_MSC_RDPS_WindDir_IsbL-0275_RLatLon0.09_PT063H.grib2 2026-05-09 09:02 484K
20260509T06Z_MSC_RDPS_WindDir_IsbL-0300_RLatLon0.09_PT063H.grib2 2026-05-09 09:02 483K
20260509T06Z_MSC_RDPS_WindDir_IsbL-0350_RLatLon0.09_PT063H.grib2 2026-05-09 09:02 503K
20260509T06Z_MSC_RDPS_WindDir_IsbL-0400_RLatLon0.09_PT063H.grib2 2026-05-09 09:02 527K
20260509T06Z_MSC_RDPS_WindDir_IsbL-0450_RLatLon0.09_PT063H.grib2 2026-05-09 09:02 547K
20260509T06Z_MSC_RDPS_WindDir_IsbL-0500_RLatLon0.09_PT063H.grib2 2026-05-09 09:02 568K
20260509T06Z_MSC_RDPS_WindDir_IsbL-0550_RLatLon0.09_PT063H.grib2 2026-05-09 09:02 582K
20260509T06Z_MSC_RDPS_WindDir_IsbL-0600_RLatLon0.09_PT063H.grib2 2026-05-09 09:02 599K
20260509T06Z_MSC_RDPS_WindDir_IsbL-0650_RLatLon0.09_PT063H.grib2 2026-05-09 09:02 630K
20260509T06Z_MSC_RDPS_WindDir_IsbL-0700_RLatLon0.09_PT063H.grib2 2026-05-09 09:02 675K
20260509T06Z_MSC_RDPS_WindDir_IsbL-0750_RLatLon0.09_PT063H.grib2 2026-05-09 09:02 723K
20260509T06Z_MSC_RDPS_WindDir_IsbL-0800_RLatLon0.09_PT063H.grib2 2026-05-09 09:02 793K
20260509T06Z_MSC_RDPS_WindDir_IsbL-0850_RLatLon0.09_PT063H.grib2 2026-05-09 09:02 859K
20260509T06Z_MSC_RDPS_WindDir_IsbL-0875_RLatLon0.09_PT063H.grib2 2026-05-09 09:02 883K
20260509T06Z_MSC_RDPS_WindDir_IsbL-0900_RLatLon0.09_PT063H.grib2 2026-05-09 09:02 907K
20260509T06Z_MSC_RDPS_WindDir_IsbL-0925_RLatLon0.09_PT063H.grib2 2026-05-09 09:02 922K
20260509T06Z_MSC_RDPS_WindDir_IsbL-0950_RLatLon0.09_PT063H.grib2 2026-05-09 09:02 922K
20260509T06Z_MSC_RDPS_WindDir_IsbL-0970_RLatLon0.09_PT063H.grib2 2026-05-09 09:02 924K
20260509T06Z_MSC_RDPS_WindDir_IsbL-0985_RLatLon0.09_PT063H.grib2 2026-05-09 09:02 935K
20260509T06Z_MSC_RDPS_WindDir_IsbL-1000_RLatLon0.09_PT063H.grib2 2026-05-09 09:02 952K
20260509T06Z_MSC_RDPS_WindDir_IsbL-1015_RLatLon0.09_PT063H.grib2 2026-05-09 09:02 969K
20260509T06Z_MSC_RDPS_WindGust-Max_AGL-10m_RLatLon0.09_PT063H.grib2 2026-05-09 09:02 955K
20260509T06Z_MSC_RDPS_WindGust-Min_AGL-10m_RLatLon0.09_PT063H.grib2 2026-05-09 09:02 1.0M
20260509T06Z_MSC_RDPS_WindGust_AGL-10m_RLatLon0.09_PT063H.grib2 2026-05-09 09:02 1.0M
20260509T06Z_MSC_RDPS_WindSpeed_AGL-10m_RLatLon0.09_PT063H.grib2 2026-05-09 09:02 850K
20260509T06Z_MSC_RDPS_WindSpeed_AGL-120m_RLatLon0.09_PT063H.grib2 2026-05-09 09:02 551K
20260509T06Z_MSC_RDPS_WindSpeed_AGL-40m_RLatLon0.09_PT063H.grib2 2026-05-09 09:02 546K
20260509T06Z_MSC_RDPS_WindSpeed_AGL-80m_RLatLon0.09_PT063H.grib2 2026-05-09 09:02 553K
20260509T06Z_MSC_RDPS_WindSpeed_IsbL-0001_RLatLon0.09_PT063H.grib2 2026-05-09 09:02 254K
20260509T06Z_MSC_RDPS_WindSpeed_IsbL-0005_RLatLon0.09_PT063H.grib2 2026-05-09 09:02 347K
20260509T06Z_MSC_RDPS_WindSpeed_IsbL-0010_RLatLon0.09_PT063H.grib2 2026-05-09 09:02 368K
20260509T06Z_MSC_RDPS_WindSpeed_IsbL-0020_RLatLon0.09_PT063H.grib2 2026-05-09 09:02 330K
20260509T06Z_MSC_RDPS_WindSpeed_IsbL-0030_RLatLon0.09_PT063H.grib2 2026-05-09 09:02 326K
20260509T06Z_MSC_RDPS_WindSpeed_IsbL-0050_RLatLon0.09_PT063H.grib2 2026-05-09 09:02 447K
20260509T06Z_MSC_RDPS_WindSpeed_IsbL-0100_RLatLon0.09_PT063H.grib2 2026-05-09 09:02 469K
20260509T06Z_MSC_RDPS_WindSpeed_IsbL-0150_RLatLon0.09_PT063H.grib2 2026-05-09 09:02 369K
20260509T06Z_MSC_RDPS_WindSpeed_IsbL-0175_RLatLon0.09_PT063H.grib2 2026-05-09 09:02 396K
20260509T06Z_MSC_RDPS_WindSpeed_IsbL-0200_RLatLon0.09_PT063H.grib2 2026-05-09 09:02 436K
20260509T06Z_MSC_RDPS_WindSpeed_IsbL-0225_RLatLon0.09_PT063H.grib2 2026-05-09 09:02 445K
20260509T06Z_MSC_RDPS_WindSpeed_IsbL-0250_RLatLon0.09_PT063H.grib2 2026-05-09 09:02 450K
20260509T06Z_MSC_RDPS_WindSpeed_IsbL-0275_RLatLon0.09_PT063H.grib2 2026-05-09 09:02 471K
20260509T06Z_MSC_RDPS_WindSpeed_IsbL-0300_RLatLon0.09_PT063H.grib2 2026-05-09 09:02 470K
20260509T06Z_MSC_RDPS_WindSpeed_IsbL-0350_RLatLon0.09_PT063H.grib2 2026-05-09 09:02 476K
20260509T06Z_MSC_RDPS_WindSpeed_IsbL-0400_RLatLon0.09_PT063H.grib2 2026-05-09 09:02 461K
20260509T06Z_MSC_RDPS_WindSpeed_IsbL-0450_RLatLon0.09_PT063H.grib2 2026-05-09 09:02 466K
20260509T06Z_MSC_RDPS_WindSpeed_IsbL-0500_RLatLon0.09_PT063H.grib2 2026-05-09 09:02 470K
20260509T06Z_MSC_RDPS_WindSpeed_IsbL-0550_RLatLon0.09_PT063H.grib2 2026-05-09 09:02 473K
20260509T06Z_MSC_RDPS_WindSpeed_IsbL-0600_RLatLon0.09_PT063H.grib2 2026-05-09 09:02 600K
20260509T06Z_MSC_RDPS_WindSpeed_IsbL-0650_RLatLon0.09_PT063H.grib2 2026-05-09 09:02 662K
20260509T06Z_MSC_RDPS_WindSpeed_IsbL-0700_RLatLon0.09_PT063H.grib2 2026-05-09 09:02 688K
20260509T06Z_MSC_RDPS_WindSpeed_IsbL-0750_RLatLon0.09_PT063H.grib2 2026-05-09 09:02 674K
20260509T06Z_MSC_RDPS_WindSpeed_IsbL-0800_RLatLon0.09_PT063H.grib2 2026-05-09 09:02 725K
20260509T06Z_MSC_RDPS_WindSpeed_IsbL-0850_RLatLon0.09_PT063H.grib2 2026-05-09 09:02 821K
20260509T06Z_MSC_RDPS_WindSpeed_IsbL-0875_RLatLon0.09_PT063H.grib2 2026-05-09 09:02 838K
20260509T06Z_MSC_RDPS_WindSpeed_IsbL-0900_RLatLon0.09_PT063H.grib2 2026-05-09 09:02 854K
20260509T06Z_MSC_RDPS_WindSpeed_IsbL-0925_RLatLon0.09_PT063H.grib2 2026-05-09 09:02 869K
20260509T06Z_MSC_RDPS_WindSpeed_IsbL-0950_RLatLon0.09_PT063H.grib2 2026-05-09 09:02 870K
20260509T06Z_MSC_RDPS_WindSpeed_IsbL-0970_RLatLon0.09_PT063H.grib2 2026-05-09 09:02 868K
20260509T06Z_MSC_RDPS_WindSpeed_IsbL-0985_RLatLon0.09_PT063H.grib2 2026-05-09 09:02 862K
20260509T06Z_MSC_RDPS_WindSpeed_IsbL-1000_RLatLon0.09_PT063H.grib2 2026-05-09 09:02 857K
20260509T06Z_MSC_RDPS_WindSpeed_IsbL-1015_RLatLon0.09_PT063H.grib2 2026-05-09 09:02 851K
20260509T06Z_MSC_RDPS_WindU_AGL-10m_RLatLon0.09_PT063H.grib2 2026-05-09 09:02 439K
20260509T06Z_MSC_RDPS_WindU_AGL-120m_RLatLon0.09_PT063H.grib2 2026-05-09 09:02 422K
20260509T06Z_MSC_RDPS_WindU_AGL-40m_RLatLon0.09_PT063H.grib2 2026-05-09 09:02 543K
20260509T06Z_MSC_RDPS_WindU_AGL-80m_RLatLon0.09_PT063H.grib2 2026-05-09 09:02 423K
20260509T06Z_MSC_RDPS_WindU_IsbL-0001_RLatLon0.09_PT063H.grib2 2026-05-09 09:02 293K
20260509T06Z_MSC_RDPS_WindU_IsbL-0005_RLatLon0.09_PT063H.grib2 2026-05-09 09:02 288K
20260509T06Z_MSC_RDPS_WindU_IsbL-0010_RLatLon0.09_PT063H.grib2 2026-05-09 09:02 300K
20260509T06Z_MSC_RDPS_WindU_IsbL-0020_RLatLon0.09_PT063H.grib2 2026-05-09 09:02 357K
20260509T06Z_MSC_RDPS_WindU_IsbL-0030_RLatLon0.09_PT063H.grib2 2026-05-09 09:02 354K
20260509T06Z_MSC_RDPS_WindU_IsbL-0050_RLatLon0.09_PT063H.grib2 2026-05-09 09:02 339K
20260509T06Z_MSC_RDPS_WindU_IsbL-0100_RLatLon0.09_PT063H.grib2 2026-05-09 09:02 462K
20260509T06Z_MSC_RDPS_WindU_IsbL-0150_RLatLon0.09_PT063H.grib2 2026-05-09 09:02 386K
20260509T06Z_MSC_RDPS_WindU_IsbL-0175_RLatLon0.09_PT063H.grib2 2026-05-09 09:02 412K
20260509T06Z_MSC_RDPS_WindU_IsbL-0200_RLatLon0.09_PT063H.grib2 2026-05-09 09:02 429K
20260509T06Z_MSC_RDPS_WindU_IsbL-0225_RLatLon0.09_PT063H.grib2 2026-05-09 09:02 437K
20260509T06Z_MSC_RDPS_WindU_IsbL-0250_RLatLon0.09_PT063H.grib2 2026-05-09 09:02 341K
20260509T06Z_MSC_RDPS_WindU_IsbL-0275_RLatLon0.09_PT063H.grib2 2026-05-09 09:02 358K
20260509T06Z_MSC_RDPS_WindU_IsbL-0300_RLatLon0.09_PT063H.grib2 2026-05-09 09:02 356K
20260509T06Z_MSC_RDPS_WindU_IsbL-0350_RLatLon0.09_PT063H.grib2 2026-05-09 09:02 361K
20260509T06Z_MSC_RDPS_WindU_IsbL-0400_RLatLon0.09_PT063H.grib2 2026-05-09 09:02 466K
20260509T06Z_MSC_RDPS_WindU_IsbL-0450_RLatLon0.09_PT063H.grib2 2026-05-09 09:02 471K
20260509T06Z_MSC_RDPS_WindU_IsbL-0500_RLatLon0.09_PT063H.grib2 2026-05-09 09:02 475K
20260509T06Z_MSC_RDPS_WindU_IsbL-0550_RLatLon0.09_PT063H.grib2 2026-05-09 09:02 477K
20260509T06Z_MSC_RDPS_WindU_IsbL-0600_RLatLon0.09_PT063H.grib2 2026-05-09 09:02 469K
20260509T06Z_MSC_RDPS_WindU_IsbL-0650_RLatLon0.09_PT063H.grib2 2026-05-09 09:02 488K
20260509T06Z_MSC_RDPS_WindU_IsbL-0700_RLatLon0.09_PT063H.grib2 2026-05-09 09:02 513K
20260509T06Z_MSC_RDPS_WindU_IsbL-0750_RLatLon0.09_PT063H.grib2 2026-05-09 09:02 540K
20260509T06Z_MSC_RDPS_WindU_IsbL-0800_RLatLon0.09_PT063H.grib2 2026-05-09 09:02 584K
20260509T06Z_MSC_RDPS_WindU_IsbL-0850_RLatLon0.09_PT063H.grib2 2026-05-09 09:02 629K
20260509T06Z_MSC_RDPS_WindU_IsbL-0875_RLatLon0.09_PT063H.grib2 2026-05-09 09:02 644K
20260509T06Z_MSC_RDPS_WindU_IsbL-0900_RLatLon0.09_PT063H.grib2 2026-05-09 09:02 658K
20260509T06Z_MSC_RDPS_WindU_IsbL-0925_RLatLon0.09_PT063H.grib2 2026-05-09 09:02 668K
20260509T06Z_MSC_RDPS_WindU_IsbL-0950_RLatLon0.09_PT063H.grib2 2026-05-09 09:02 665K
20260509T06Z_MSC_RDPS_WindU_IsbL-0970_RLatLon0.09_PT063H.grib2 2026-05-09 09:02 661K
20260509T06Z_MSC_RDPS_WindU_IsbL-0985_RLatLon0.09_PT063H.grib2 2026-05-09 09:02 658K
20260509T06Z_MSC_RDPS_WindU_IsbL-1000_RLatLon0.09_PT063H.grib2 2026-05-09 09:02 794K
20260509T06Z_MSC_RDPS_WindU_IsbL-1015_RLatLon0.09_PT063H.grib2 2026-05-09 09:02 790K
20260509T06Z_MSC_RDPS_WindV_AGL-10m_RLatLon0.09_PT063H.grib2 2026-05-09 09:02 436K
20260509T06Z_MSC_RDPS_WindV_AGL-120m_RLatLon0.09_PT063H.grib2 2026-05-09 09:02 536K
20260509T06Z_MSC_RDPS_WindV_AGL-40m_RLatLon0.09_PT063H.grib2 2026-05-09 09:02 538K
20260509T06Z_MSC_RDPS_WindV_AGL-80m_RLatLon0.09_PT063H.grib2 2026-05-09 09:02 536K
20260509T06Z_MSC_RDPS_WindV_IsbL-0001_RLatLon0.09_PT063H.grib2 2026-05-09 09:02 294K
20260509T06Z_MSC_RDPS_WindV_IsbL-0005_RLatLon0.09_PT063H.grib2 2026-05-09 09:02 288K
20260509T06Z_MSC_RDPS_WindV_IsbL-0010_RLatLon0.09_PT063H.grib2 2026-05-09 09:02 302K
20260509T06Z_MSC_RDPS_WindV_IsbL-0020_RLatLon0.09_PT063H.grib2 2026-05-09 09:02 360K
20260509T06Z_MSC_RDPS_WindV_IsbL-0030_RLatLon0.09_PT063H.grib2 2026-05-09 09:02 318K
20260509T06Z_MSC_RDPS_WindV_IsbL-0050_RLatLon0.09_PT063H.grib2 2026-05-09 09:02 339K
20260509T06Z_MSC_RDPS_WindV_IsbL-0100_RLatLon0.09_PT063H.grib2 2026-05-09 09:02 420K
20260509T06Z_MSC_RDPS_WindV_IsbL-0150_RLatLon0.09_PT063H.grib2 2026-05-09 09:02 361K
20260509T06Z_MSC_RDPS_WindV_IsbL-0175_RLatLon0.09_PT063H.grib2 2026-05-09 09:02 410K
20260509T06Z_MSC_RDPS_WindV_IsbL-0200_RLatLon0.09_PT063H.grib2 2026-05-09 09:02 426K
20260509T06Z_MSC_RDPS_WindV_IsbL-0225_RLatLon0.09_PT063H.grib2 2026-05-09 09:02 337K
20260509T06Z_MSC_RDPS_WindV_IsbL-0250_RLatLon0.09_PT063H.grib2 2026-05-09 09:02 339K
20260509T06Z_MSC_RDPS_WindV_IsbL-0275_RLatLon0.09_PT063H.grib2 2026-05-09 09:02 356K
20260509T06Z_MSC_RDPS_WindV_IsbL-0300_RLatLon0.09_PT063H.grib2 2026-05-09 09:02 353K
20260509T06Z_MSC_RDPS_WindV_IsbL-0350_RLatLon0.09_PT063H.grib2 2026-05-09 09:02 358K
20260509T06Z_MSC_RDPS_WindV_IsbL-0400_RLatLon0.09_PT063H.grib2 2026-05-09 09:02 360K
20260509T06Z_MSC_RDPS_WindV_IsbL-0450_RLatLon0.09_PT063H.grib2 2026-05-09 09:02 467K
20260509T06Z_MSC_RDPS_WindV_IsbL-0500_RLatLon0.09_PT063H.grib2 2026-05-09 09:02 472K
20260509T06Z_MSC_RDPS_WindV_IsbL-0550_RLatLon0.09_PT063H.grib2 2026-05-09 09:02 475K
20260509T06Z_MSC_RDPS_WindV_IsbL-0600_RLatLon0.09_PT063H.grib2 2026-05-09 09:02 483K
20260509T06Z_MSC_RDPS_WindV_IsbL-0650_RLatLon0.09_PT063H.grib2 2026-05-09 09:02 501K
20260509T06Z_MSC_RDPS_WindV_IsbL-0700_RLatLon0.09_PT063H.grib2 2026-05-09 09:02 509K
20260509T06Z_MSC_RDPS_WindV_IsbL-0750_RLatLon0.09_PT063H.grib2 2026-05-09 09:02 535K
20260509T06Z_MSC_RDPS_WindV_IsbL-0800_RLatLon0.09_PT063H.grib2 2026-05-09 09:02 579K
20260509T06Z_MSC_RDPS_WindV_IsbL-0850_RLatLon0.09_PT063H.grib2 2026-05-09 09:02 623K
20260509T06Z_MSC_RDPS_WindV_IsbL-0875_RLatLon0.09_PT063H.grib2 2026-05-09 09:02 638K
20260509T06Z_MSC_RDPS_WindV_IsbL-0900_RLatLon0.09_PT063H.grib2 2026-05-09 09:02 651K
20260509T06Z_MSC_RDPS_WindV_IsbL-0925_RLatLon0.09_PT063H.grib2 2026-05-09 09:02 661K
20260509T06Z_MSC_RDPS_WindV_IsbL-0950_RLatLon0.09_PT063H.grib2 2026-05-09 09:02 660K
20260509T06Z_MSC_RDPS_WindV_IsbL-0970_RLatLon0.09_PT063H.grib2 2026-05-09 09:02 656K
20260509T06Z_MSC_RDPS_WindV_IsbL-0985_RLatLon0.09_PT063H.grib2 2026-05-09 09:02 795K
20260509T06Z_MSC_RDPS_WindV_IsbL-1000_RLatLon0.09_PT063H.grib2 2026-05-09 09:02 792K
20260509T06Z_MSC_RDPS_WindV_IsbL-1015_RLatLon0.09_PT063H.grib2 2026-05-09 09:02 833K